Temp
79 79 80 82 82 82 82 83 83 84 85 83 85 87 85 85 83 83 82 81 81 79 80 81 80 80 79 80 80 79 79 78 78 78 78 78 80 79 79 80 80 80 80 79 80 79 81 82 82 82 81 82 81 81 80 81 82 84 82 81 80 80 80
78 79 81 82 81 81 82 83 83 84 84 83 85 85 84 84 83 82 82 82 81 80 81 81 80 80 80 80 80 79 79 79 79 80 79 79 81 80 81 81 80 79 79 80 80 81 81 82 81 81 82 82 82 80 82 81 81 81 81 81 81 80 81
78 79 80 81 80 80 81 82 83 83 85 84 85 85 82 82 82 82 81 81 81 80 81 81 81 81 80 80 79 79 80 80 79 80 79 80 80 83 83 82 81 81 82 80 80 83 83 82 81 81 82 82 83 81 81 81 81 82 80 81 80 81 79
77 78 78 81 82 81 82 81 82 82 83 84 84 85 82 81 83 82 82 82 82 81 80 82 82 82 82 80 80 80 80 80 81 82 82 82 82 83 82 82 82 82 81 81 83 84 86 83 83 81 84 81 81 82 82 82 83 82 81 80 81 80 80
77 79 78 76 78 80 81 81 81 81 83 84 83 84 82 83 83 82 83 84 83 82 83 83 85 84 83 83 84 83 82 82 82 83 83 83 83 84 84 84 83 84 82 83 82 82 81 82 83 82 82 81 81 82 82 82 82 82 80 81 80 80 80
77 77 76 76 74 74 77 81 82 83 83 83 82 82 82 83 84 84 83 83 83 83 83 84 84 83 82 84 85 85 83 83 82 82 83 83 82 83 83 82 84 85 84 83 83 83 82 83 82 82 83 83 83 83 83 82 83 83 81 80 81 81 81
76 75 71 71 72 71 70 71 73 75 78 81 81 82 83 83 83 83 83 83 83 82 84 84 85 83 82 84 82 83 83 84 83 84 84 85 84 83 82 83 83 85 86 84 84 85 83 83 83 83 84 85 84 84 82 82 82 82 81 80 80 79 80
75 68 68 70 72 71 70 72 73 73 74 75 76 75 76 81 83 83 83 83 84 85 84 84 83 82 82 83 82 82 84 83 84 85 84 85 85 84 84 84 83 85 84 86 84 85 85 84 86 84 84 85 83 83 83 81 80 83 82 81 80 81 85
68 70 71 71 71 71 70 70 70 73 74 74 74 75 75 74 76 78 82 82 83 83 83 83 82 82 82 81 81 80 83 83 83 84 84 85 85 86 86 86 86 86 85 87 87 86 86 85 86 84 84 85 82 82 83 81 82 82 81 81 81 80 83
70 69 71 70 70 71 71 71 71 72 72 72 73 74 74 74 75 77 79 81 80 81 82 82 81 82 82 81 82 82 82 82 82 85 85 86 85 86 87 88 88 87 87 87 88 87 86 87 87 84 82 83 82 81 82 81 82 82 83 81 81 81 80
70 70 69 69 69 70 70 71 71 71 72 72 73 74 75 75 75 75 77 78 79 78 77 79 82 82 81 81 82 82 81 82 82 83 82 82 83 86 88 88 88 87 88 87 87 87 86 84 85 83 82 86 82 82 82 82 83 82 83 83 83 82 83
69 70 68 69 69 70 70 70 71 72 72 73 73 74 75 75 75 75 76 77 78 78 78 77 79 81 82 81 81 81 82 83 83 82 82 82 81 82 86 88 88 87 88 88 87 86 87 86 87 85 82 83 83 82 82 82 82 82 83 84 84 83 83
67 68 69 69 69 70 70 70 71 71 72 73 73 74 74 74 74 75 76 77 78 78 78 77 78 79 80 80 81 80 81 82 82 82 82 81 81 81 83 84 86 87 87 87 88 88 87 87 85 84 83 83 84 84 82 82 84 81 81 83 83 83 82
69 68 68 68 69 69 70 70 71 71 71 71 71 73 74 74 74 76 76 77 78 78 78 79 77 76 79 80 79 79 80 81 81 81 80 80 80 80 81 83 83 82 83 83 84 86 87 87 86 85 85 84 84 84 83 82 83 81 81 83 84 83 82
67 67 66 68 68 68 69 69 70 70 70 70 72 73 75 76 76 76 77 78 78 79 78 77 76 76 77 77 78 78 78 78 79 79 79 79 79 79 79 81 83 82 81 80 82 84 84 85 86 85 86 86 85 84 86 85 81 78 77 80 82 83 83
66 66 67 68 68 68 69 69 69 69 71 72 72 73 73 74 74 74 74 73 73 72 74 76 75 76 76 74 73 73 73 73 73 74 77 77 78 78 78 79 79 79 78 79 80 80 80 80 82 85 85 84 84 84 84 80 79 75 73 73 80 82 85
66 66 67 67 68 68 69 70 70 70 69 70 70 70 71 71 71 72 72 73 73 74 75 76 73 74 73 71 72 72 73 72 72 72 71 72 73 76 77 77 78 77 77 78 79 77 78 79 80 82 82 82 82 80 78 76 70 66 66 68 73 82 81
66 67 67 67 68 68 69 69 69 69 69 70 70 70 70 69 70 71 71 73 73 73 73 74 73 72 72 72 72 73 70 71 73 72 72 73 73 73 75 76 77 76 76 77 78 77 78 78 78 78 80 81 81 79 76 72 65 63 65 66 67 73 78
65 65 66 67 67 68 68 68 68 68 69 69 69 70 70 70 69 68 69 70 71 72 72 72 72 71 71 72 72 72 71 72 72 72 72 73 75 76 77 76 77 76 77 77 78 77 76 76 77 76 78 79 79 78 75 71 64 63 65 65 66 68 78
66 67 67 68 68 67 68 68 68 69 69 69 70 71 71 70 68 68 69 70 70 69 69 69 69 70 70 71 71 72 72 73 73 72 73 74 75 75 76 75 75 75 75 76 76 76 77 76 77 75 75 76 76 73 71 69 63 63 64 64 65 66 72
66 66 67 67 68 68 68 68 68 68 69 70 71 71 71 70 70 69 68 69 69 69 68 68 69 69 69 69 69 70 70 71 71 71 71 72 73 73 72 72 72 72 72 72 73 72 73 74 76 74 74 75 74 70 69 66 61 61 63 62 64 65 73
67 67 66 66 66 67 68 68 67 67 67 69 69 69 70 69 70 68 67 68 67 67 68 68 67 68 68 68 69 69 69 70 69 69 70 70 71 71 71 71 70 70 71 72 72 72 72 74 74 73 73 74 73 69 65 63 59 60 60 61 62 67 78
68 68 68 68 68 67 68 69 69 68 69 68 68 67 67 68 68 67 66 66 66 65 65 65 64 65 66 66 67 68 69 70 70 70 69 69 69 69 70 70 70 70 71 70 70 71 72 72 73 73 72 73 72 67 64 63 59 58 58 59 60 71 77
68 68 68 70 70 70 70 70 70 70 69 68 68 67 67 67 66 66 65 64 64 64 64 64 63 64 65 65 66 66 68 69 70 69 69 69 69 69 69 70 70 70 71 69 69 69 70 71 72 72 71 71 69 66 63 62 60 57 57 57 58 69 75
67 67 68 69 68 68 68 68 69 70 69 68 66 66 66 67 66 65 65 65 64 64 63 63 63 63 64 64 65 65 66 68 69 69 69 68 68 69 69 69 70 71 70 70 70 69 69 72 72 71 70 71 69 70 64 63 62 57 56 57 58 67 73
67 68 69 69 69 69 69 69 69 69 68 68 67 69 69 69 67 66 65 65 66 65 64 64 64 63 64 64 64 65 65 66 66 66 67 68 69 69 68 69 70 70 70 68 68 68 68 69 69 69 70 69 66 65 64 62 61 60 56 56 58 64 72
69 70 69 70 69 70 68 69 69 69 69 68 69 70 69 68 67 65 65 66 65 65 65 65 65 64 63 64 65 65 66 66 66 67 67 68 68 70 70 70 70 69 68 67 68 68 68 68 67 67 66 66 66 64 63 63 62 61 55 55 56 59 66
71 71 71 71 71 70 68 68 67 69 70 70 71 71 69 67 65 65 65 65 64 65 67 67 66 65 65 64 64 65 64 65 66 67 67 69 68 67 68 69 70 70 70 69 68 68 68 68 68 66 65 65 66 66 65 67 68 64 59 55 55 56 60
69 69 69 68 70 71 71 68 68 69 69 71 72 71 70 69 65 65 65 64 64 67 67 68 68 67 65 65 65 65 65 65 66 66 67 68 68 67 66 67 68 68 69 68 68 68 68 68 67 66 65 65 64 65 65 65 66 68 65 59 56 55 56
70 70 71 72 73 72 72 68 68 68 69 70 69 69 68 67 65 65 64 63 65 67 67 67 66 67 67 67 66 66 66 67 67 66 66 69 68 67 66 65 67 66 66 68 68 67 68 67 68 66 66 64 64 65 64 64 66 67 67 65 60 57 57
70 70 71 71 72 71 71 69 67 67 67 67 67 66 66 65 64 63 62 64 66 65 65 66 67 67 66 66 66 66 66 68 66 66 67 67 66 65 66 66 66 65 66 66 66 66 66 67 69 69 69 67 66 65 64 65 65 65 66 68 67 61 58
71 70 71 71 70 70 70 70 69 68 66 65 66 65 65 65 64 63 63 65 66 65 65 66 65 66 65 65 65 66 67 67 67 67 66 67 67 66 65 65 65 64 64 65 65 65 65 66 66 66 67 68 67 66 64 63 62 61 61 65 66 65 62
68 69 70 69 69 69 69 69 67 66 66 65 66 66 66 65 64 63 64 65 66 66 65 66 66 67 65 63 65 65 64 64 65 65 66 65 65 68 68 66 65 66 65 64 62 63 64 64 64 63 63 64 63 62 61 60 59 58 59 59 60 61 62
68 68 69 68 67 68 67 66 65 65 64 63 64 64 65 64 65 66 65 65 66 67 66 67 67 65 65 66 66 65 66 67 73 69 65 65 66 65 67 67 67 64 63 62 62 61 61 62 61 60 60 60 61 61 61 58 57 56 56 57 57 58 59
66 67 67 67 67 67 66 65 65 65 65 65 64 64 64 64 65 66 65 65 66 65 65 67 69 69 67 68 68 67 69 68 66 66 64 62 61 59 58 59 64 63 60 61 59 62 63 61 60 61 60 60 59 60 59 59 57 57 55 55 51 53 55
67 67 67 67 67 66 65 65 64 64 63 62 63 63 64 64 65 66 68 67 66 66 65 66 66 65 63 63 64 66 66 65 64 63 64 64 61 60 59 56 50 54 61 58 58 53 52 55 58 59 60 56 56 57 60 57 56 52 46 45 45 44 46
67 66 66 67 66 65 64 64 64 63 62 62 63 64 64 64 65 66 66 65 66 66 64 63 64 64 62 62 62 65 65 64 62 61 60 61 61 62 60 58 57 46 49 55 55 47 41 41 43 49 56 60 58 55 52 53 49 46 47 47 45 43 43
68 68 68 66 65 64 64 64 64 63 63 62 63 64 64 65 66 64 67 66 65 64 64 64 64 63 63 62 62 65 64 62 64 64 62 62 61 60 60 58 56 56 46 44 47 45 41 40 40 42 48 53 56 57 53 50 45 43 44 43 42 42 42
MSLP
1013.48 1013.44 1013.08 1012.88 1013.12 1013.28 1013.44 1013.48 1013.60 1013.84 1014.04 1014.40 1014.44 1014.52 1014.88 1015.24 1015.60 1015.96 1016.48 1016.80 1017.20 1017.56 1017.56 1017.60 1017.80 1017.92 1018.20 1018.36 1018.44 1018.56 1018.68 1018.92 1019.08 1019.32 1019.44 1019.52 1019.48 1019.52 1019.76 1019.84 1019.96 1020.00 1020.00 1020.16 1020.12 1020.16 1020.00 1019.84 1019.88 1019.96 1020.00 1020.12 1020.20 1020.24 1020.24 1020.20 1020.28 1020.28 1020.32 1020.44 1020.56 1020.68 1020.76
1013.64 1013.36 1013.12 1012.80 1013.00 1013.12 1013.12 1013.16 1013.40 1013.68 1013.84 1014.16 1014.20 1014.32 1014.68 1015.08 1015.40 1015.88 1016.32 1016.60 1016.88 1017.28 1017.44 1017.52 1017.72 1017.88 1018.00 1018.20 1018.28 1018.44 1018.72 1018.80 1018.92 1019.00 1019.20 1019.32 1019.28 1019.28 1019.28 1019.52 1019.68 1019.76 1019.68 1019.76 1019.80 1019.72 1019.80 1019.76 1019.80 1019.96 1020.08 1020.12 1020.16 1020.16 1020.16 1020.20 1020.24 1020.32 1020.40 1020.44 1020.64 1020.72 1020.68
1013.36 1013.12 1012.88 1012.76 1012.88 1013.00 1013.04 1013.08 1013.24 1013.48 1013.68 1013.96 1014.04 1014.28 1014.72 1015.00 1015.16 1015.56 1016.08 1016.48 1016.84 1017.12 1017.20 1017.40 1017.60 1017.72 1017.84 1017.96 1018.28 1018.44 1018.52 1018.68 1018.88 1018.96 1019.24 1019.28 1019.28 1019.16 1019.08 1019.20 1019.32 1019.48 1019.44 1019.44 1019.60 1019.68 1019.56 1019.76 1019.72 1019.84 1019.96 1020.12 1020.16 1020.16 1020.16 1020.24 1020.24 1020.32 1020.40 1020.40 1020.60 1020.72 1020.76
1013.00 1012.88 1012.64 1012.32 1012.40 1012.52 1012.68 1012.92 1013.16 1013.40 1013.48 1013.64 1013.88 1014.08 1014.64 1014.92 1014.92 1015.24 1015.64 1016.08 1016.64 1016.96 1017.28 1017.32 1017.44 1017.64 1017.76 1017.96 1018.16 1018.32 1018.44 1018.52 1018.60 1018.76 1018.88 1018.88 1018.96 1018.84 1018.96 1019.08 1019.20 1019.24 1019.44 1019.48 1019.44 1019.48 1019.48 1019.60 1019.80 1019.84 1019.84 1020.08 1020.16 1020.16 1020.16 1020.28 1020.28 1020.32 1020.40 1020.44 1020.64 1020.64 1020.64
1012.60 1012.44 1012.52 1012.68 1012.64 1012.64 1012.76 1013.00 1013.20 1013.32 1013.52 1013.44 1013.60 1013.80 1014.36 1014.68 1014.92 1015.28 1015.56 1015.84 1016.16 1016.68 1016.76 1016.96 1017.08 1017.28 1017.48 1017.60 1017.84 1018.00 1018.20 1018.32 1018.40 1018.44 1018.52 1018.52 1018.52 1018.60 1018.88 1019.04 1019.04 1019.16 1019.20 1019.24 1019.36 1019.44 1019.52 1019.60 1019.76 1019.84 1019.88 1019.96 1020.12 1020.16 1020.20 1020.20 1020.28 1020.28 1020.40 1020.48 1020.68 1020.64 1020.72
1012.60 1012.60 1012.64 1012.76 1013.48 1013.80 1013.40 1013.04 1013.12 1013.16 1013.36 1013.56 1013.68 1013.96 1014.28 1014.60 1014.92 1015.36 1015.56 1015.84 1016.16 1016.24 1016.48 1016.72 1016.96 1017.12 1017.48 1017.48 1017.60 1017.72 1017.84 1017.96 1018.00 1018.12 1018.24 1018.28 1018.44 1018.64 1018.76 1018.76 1018.84 1018.88 1019.16 1019.24 1019.20 1019.28 1019.36 1019.52 1019.68 1019.76 1019.88 1019.88 1019.96 1020.08 1020.04 1020.16 1020.16 1020.16 1020.32 1020.44 1020.56 1020.60 1020.76
1012.40 1012.68 1013.40 1013.68 1014.04 1014.28 1014.24 1013.96 1014.64 1014.48 1014.12 1013.64 1013.56 1013.76 1014.04 1014.48 1014.92 1015.20 1015.44 1015.88 1016.00 1016.40 1016.52 1016.68 1016.72 1016.88 1017.16 1017.24 1017.40 1017.56 1017.80 1017.88 1017.92 1018.04 1017.96 1018.08 1018.20 1018.44 1018.52 1018.56 1018.56 1018.64 1018.64 1018.80 1019.12 1019.08 1019.36 1019.44 1019.52 1019.56 1019.64 1019.72 1019.84 1019.96 1020.04 1020.12 1020.16 1020.12 1020.24 1020.44 1020.56 1020.56 1020.60
1012.68 1014.32 1014.44 1014.04 1013.80 1013.80 1013.96 1014.20 1014.32 1014.08 1014.24 1014.72 1014.36 1014.56 1015.16 1014.76 1014.76 1015.16 1015.52 1015.68 1015.92 1016.12 1016.32 1016.48 1016.56 1016.68 1016.84 1017.00 1017.16 1017.36 1017.48 1017.56 1017.56 1017.68 1017.76 1018.00 1018.12 1018.32 1018.40 1018.44 1018.48 1018.40 1018.52 1018.84 1018.84 1018.84 1019.12 1019.28 1019.28 1019.28 1019.40 1019.56 1019.64 1019.76 1019.84 1019.92 1020.00 1020.00 1020.12 1020.40 1020.52 1020.56 1020.40
1013.24 1012.92 1012.84 1013.12 1013.32 1013.56 1014.04 1014.40 1014.68 1014.88 1014.88 1015.28 1014.80 1014.80 1015.20 1015.40 1015.20 1015.32 1015.32 1015.56 1015.72 1016.00 1016.16 1016.04 1016.20 1016.24 1016.44 1016.76 1016.96 1017.12 1017.16 1017.24 1017.48 1017.52 1017.64 1017.84 1018.00 1018.20 1018.20 1018.24 1018.28 1018.16 1018.52 1018.60 1018.68 1018.60 1018.72 1018.96 1018.96 1019.04 1019.12 1019.28 1019.40 1019.52 1019.68 1019.80 1019.92 1019.92 1020.08 1020.24 1020.36 1020.52 1020.40
1013.16 1013.24 1013.32 1013.68 1013.96 1014.04 1014.12 1014.32 1014.32 1014.92 1015.32 1015.40 1015.12 1015.00 1015.52 1015.44 1015.20 1015.12 1015.20 1015.32 1015.52 1015.76 1015.80 1015.80 1015.88 1016.00 1016.20 1016.48 1016.68 1016.80 1017.00 1017.24 1017.32 1017.48 1017.64 1017.80 1017.76 1017.92 1017.84 1017.88 1017.96 1017.92 1018.12 1018.20 1018.28 1018.56 1018.48 1018.48 1018.64 1018.72 1019.00 1019.16 1019.32 1019.44 1019.56 1019.72 1019.76 1019.80 1019.92 1020.04 1020.12 1020.24 1020.32
1013.40 1013.44 1013.60 1013.64 1013.72 1013.68 1013.76 1014.00 1014.36 1014.76 1014.88 1014.88 1014.84 1015.12 1015.44 1015.36 1015.12 1015.20 1015.32 1015.36 1015.40 1015.52 1015.48 1015.56 1015.52 1015.76 1016.04 1016.24 1016.60 1016.72 1016.92 1017.12 1017.20 1017.44 1017.60 1017.68 1017.64 1017.68 1017.64 1017.60 1017.64 1017.68 1017.88 1017.96 1018.12 1018.16 1018.24 1018.44 1018.36 1018.64 1018.88 1019.04 1019.20 1019.36 1019.48 1019.52 1019.56 1019.72 1019.76 1019.76 1019.76 1019.88 1020.00
1014.60 1013.76 1013.80 1013.72 1013.76 1013.68 1013.88 1014.12 1014.28 1014.72 1014.92 1015.00 1015.04 1015.04 1015.16 1015.36 1015.28 1015.32 1015.44 1015.44 1015.24 1015.28 1015.36 1015.36 1015.32 1015.52 1015.76 1016.00 1016.44 1016.72 1016.84 1016.96 1017.12 1017.32 1017.40 1017.44 1017.52 1017.56 1017.44 1017.40 1017.44 1017.56 1017.60 1017.68 1017.96 1017.92 1017.96 1018.20 1018.20 1018.36 1018.64 1018.72 1018.80 1018.96 1019.08 1019.12 1019.32 1019.52 1019.56 1019.56 1019.56 1019.64 1019.72
1015.36 1014.84 1014.24 1013.92 1013.84 1013.76 1013.76 1014.32 1014.64 1014.76 1014.96 1015.04 1015.20 1015.24 1015.40 1015.56 1015.44 1015.44 1015.52 1015.64 1015.40 1015.16 1015.16 1015.32 1015.36 1015.52 1015.68 1015.84 1016.12 1016.48 1016.64 1016.80 1016.96 1017.08 1017.28 1017.36 1017.40 1017.32 1017.24 1017.32 1017.40 1017.52 1017.72 1017.52 1017.48 1017.68 1017.88 1017.92 1018.08 1018.08 1018.24 1018.40 1018.44 1018.64 1018.84 1018.92 1018.96 1019.20 1019.32 1019.32 1019.36 1019.48 1019.60
1015.08 1015.56 1015.28 1014.80 1014.44 1014.24 1014.16 1014.32 1014.56 1014.80 1014.88 1014.92 1014.92 1014.84 1015.00 1015.72 1015.88 1015.48 1015.48 1015.68 1015.44 1015.32 1015.28 1015.32 1015.44 1015.72 1015.88 1015.96 1016.16 1016.40 1016.60 1016.72 1016.80 1016.96 1017.08 1017.20 1017.28 1017.28 1017.20 1017.24 1017.32 1017.48 1017.52 1017.52 1017.76 1017.60 1017.48 1017.68 1017.84 1017.84 1017.96 1018.12 1018.20 1018.28 1018.36 1018.64 1018.84 1019.04 1019.16 1019.16 1019.16 1019.32 1019.44
1015.24 1016.04 1016.20 1015.88 1015.64 1015.48 1015.16 1014.96 1014.76 1014.76 1014.80 1014.72 1014.76 1014.96 1015.00 1015.16 1015.36 1015.24 1015.24 1015.28 1015.36 1015.64 1015.64 1015.56 1015.72 1016.04 1016.16 1016.36 1016.64 1016.72 1016.80 1016.92 1017.00 1017.04 1017.12 1017.24 1017.32 1017.32 1017.36 1017.32 1017.32 1017.36 1017.52 1017.68 1017.76 1017.68 1017.68 1017.52 1017.56 1017.76 1017.88 1017.84 1017.92 1018.08 1018.16 1018.56 1019.00 1019.20 1019.44 1019.48 1019.24 1019.04 1019.28
1015.16 1016.00 1016.28 1016.16 1016.08 1015.92 1015.92 1016.32 1016.32 1016.04 1015.72 1015.44 1015.28 1015.20 1015.20 1015.24 1015.40 1015.52 1015.68 1016.08 1016.36 1016.56 1016.32 1016.00 1016.12 1016.32 1016.60 1017.40 1018.16 1018.32 1018.40 1018.52 1018.52 1018.56 1018.28 1017.96 1017.72 1017.56 1017.48 1017.44 1017.48 1017.56 1017.72 1017.76 1017.72 1017.76 1017.68 1017.72 1017.68 1017.80 1018.04 1018.16 1018.20 1018.32 1018.64 1018.96 1019.04 1019.24 1019.20 1019.20 1019.16 1018.96 1018.88
1015.12 1015.44 1015.60 1015.56 1015.60 1015.92 1015.76 1015.76 1016.28 1016.56 1016.76 1016.76 1016.72 1016.52 1016.28 1016.12 1016.04 1015.96 1016.00 1016.60 1016.80 1016.88 1016.76 1016.64 1017.04 1016.96 1017.28 1017.92 1018.20 1018.72 1018.88 1018.56 1018.32 1018.24 1018.28 1018.48 1018.52 1018.36 1018.12 1017.92 1017.80 1017.84 1017.88 1017.84 1017.80 1017.84 1017.76 1017.76 1017.96 1018.08 1018.08 1018.16 1018.32 1018.72 1019.04 1019.28 1019.52 1019.48 1019.16 1019.04 1018.88 1018.68 1018.72
1015.08 1015.16 1015.48 1015.72 1015.88 1016.00 1016.08 1016.04 1016.12 1016.48 1016.84 1016.92 1017.00 1017.04 1017.08 1017.32 1017.24 1016.84 1016.56 1016.28 1016.84 1017.24 1017.32 1017.16 1017.08 1017.40 1017.64 1017.72 1017.68 1018.04 1019.04 1019.48 1018.96 1018.64 1018.44 1018.40 1018.24 1018.24 1018.20 1018.08 1018.08 1018.08 1018.04 1018.00 1018.04 1017.96 1017.84 1018.00 1018.08 1018.08 1018.16 1018.24 1018.28 1018.52 1018.88 1019.24 1019.40 1019.20 1019.16 1019.12 1018.96 1018.72 1018.60
1015.44 1015.48 1015.60 1015.48 1015.56 1015.60 1015.76 1016.16 1016.40 1016.52 1016.68 1016.76 1017.12 1017.32 1017.32 1017.16 1017.44 1017.56 1017.16 1016.88 1016.84 1016.84 1017.16 1017.40 1017.56 1017.88 1018.16 1018.04 1017.96 1018.24 1018.84 1018.68 1018.52 1018.56 1018.56 1018.32 1018.08 1018.00 1017.96 1018.04 1018.12 1018.20 1018.20 1018.20 1017.96 1017.88 1018.04 1018.12 1018.12 1018.24 1018.16 1018.24 1018.52 1018.80 1018.96 1019.28 1019.40 1019.08 1019.00 1019.08 1019.08 1018.76 1018.56
1015.68 1015.56 1015.44 1015.52 1015.60 1015.80 1016.04 1016.16 1016.36 1016.52 1016.68 1016.88 1017.04 1017.12 1017.08 1017.00 1017.16 1017.24 1017.04 1016.96 1016.84 1016.92 1017.16 1017.48 1017.92 1018.24 1018.64 1018.52 1018.36 1018.16 1018.04 1017.96 1018.04 1018.16 1018.16 1018.08 1018.08 1017.96 1017.96 1018.08 1018.24 1018.20 1018.12 1018.04 1017.88 1017.96 1018.00 1018.00 1018.16 1018.20 1018.20 1018.20 1018.48 1018.88 1019.20 1019.32 1019.36 1019.08 1018.80 1018.84 1018.92 1018.92 1018.72
1016.16 1016.20 1016.12 1015.92 1015.96 1015.92 1016.04 1016.24 1016.52 1016.72 1016.88 1016.92 1016.92 1016.96 1016.96 1017.24 1017.16 1017.16 1017.24 1017.20 1017.36 1017.40 1017.60 1017.72 1017.92 1018.12 1018.28 1018.40 1018.36 1018.20 1018.16 1018.08 1018.12 1018.20 1018.20 1018.12 1018.12 1018.16 1018.20 1018.24 1018.28 1018.32 1018.28 1018.20 1018.24 1018.24 1018.24 1018.08 1018.04 1018.24 1018.32 1018.56 1018.68 1019.00 1019.28 1019.40 1019.40 1019.20 1018.88 1018.64 1018.68 1018.84 1018.76
1016.32 1016.32 1016.68 1016.56 1016.48 1016.44 1016.16 1016.24 1016.44 1016.68 1016.92 1016.80 1016.80 1016.92 1017.00 1017.28 1017.24 1017.40 1017.64 1017.56 1017.72 1017.84 1017.92 1018.04 1018.20 1018.36 1018.32 1018.40 1018.40 1018.32 1018.20 1018.20 1018.28 1018.32 1018.28 1018.28 1018.24 1018.32 1018.40 1018.44 1018.44 1018.48 1018.36 1018.32 1018.32 1018.20 1018.12 1018.00 1017.92 1018.20 1018.08 1018.20 1018.64 1019.16 1019.52 1019.68 1019.60 1019.24 1019.00 1018.72 1018.48 1018.64 1018.68
1016.48 1016.40 1016.28 1016.44 1016.60 1016.84 1016.72 1016.56 1016.56 1016.68 1016.76 1017.00 1017.12 1017.20 1017.28 1017.12 1017.16 1017.48 1017.80 1018.04 1018.16 1018.20 1018.28 1018.40 1018.60 1018.72 1018.68 1018.68 1018.60 1018.48 1018.36 1018.28 1018.32 1018.40 1018.44 1018.44 1018.48 1018.60 1018.60 1018.60 1018.56 1018.48 1018.36 1018.56 1018.52 1018.44 1018.36 1018.28 1018.24 1018.32 1018.48 1018.68 1018.96 1019.44 1019.92 1019.92 1019.96 1019.72 1019.28 1018.88 1018.60 1018.48 1018.72
1017.08 1016.92 1016.72 1016.40 1016.32 1016.56 1016.68 1016.72 1016.80 1016.96 1017.28 1017.56 1017.68 1017.72 1017.68 1017.64 1017.60 1017.64 1017.92 1018.20 1018.36 1018.48 1018.68 1018.68 1018.84 1018.80 1018.80 1018.88 1018.80 1018.68 1018.56 1018.44 1018.40 1018.56 1018.64 1018.64 1018.72 1018.76 1018.72 1018.60 1018.52 1018.52 1018.40 1018.60 1018.68 1018.64 1018.56 1018.40 1018.40 1018.48 1018.84 1019.12 1019.52 1019.72 1019.84 1020.08 1020.00 1019.84 1019.60 1019.20 1018.84 1018.56 1018.72
1017.36 1017.64 1017.68 1017.32 1017.00 1017.24 1017.28 1017.40 1017.48 1017.64 1017.76 1018.00 1018.24 1018.20 1018.12 1018.16 1018.28 1018.40 1018.64 1018.76 1018.84 1018.88 1019.04 1019.08 1019.08 1019.04 1019.08 1019.08 1019.00 1018.92 1018.80 1018.68 1018.64 1018.72 1018.76 1018.84 1018.84 1018.76 1018.80 1018.76 1018.72 1018.60 1018.52 1018.56 1018.56 1018.64 1018.48 1018.28 1018.40 1018.68 1018.88 1018.96 1019.20 1019.24 1019.44 1019.68 1019.80 1019.72 1019.56 1019.28 1018.88 1018.60 1018.64
1017.52 1017.92 1018.20 1017.72 1017.60 1017.60 1017.72 1017.80 1018.04 1018.36 1018.60 1018.72 1018.76 1018.56 1018.56 1018.60 1018.68 1018.84 1019.00 1019.12 1019.08 1019.28 1019.44 1019.44 1019.36 1019.24 1019.16 1019.12 1019.12 1019.08 1019.04 1019.00 1019.04 1019.00 1018.92 1018.88 1018.84 1018.88 1018.92 1018.80 1018.68 1018.68 1018.72 1018.72 1018.64 1018.60 1018.52 1018.44 1018.52 1018.68 1018.84 1018.92 1019.08 1019.52 1019.64 1019.84 1019.92 1019.88 1019.68 1019.48 1019.16 1018.68 1018.68
1017.52 1017.80 1018.16 1018.04 1018.00 1017.88 1018.08 1018.20 1018.32 1018.56 1018.72 1018.76 1018.68 1018.72 1018.80 1018.96 1019.12 1019.12 1019.04 1019.16 1019.36 1019.64 1019.60 1019.52 1019.48 1019.40 1019.36 1019.28 1019.20 1019.20 1019.16 1019.16 1019.16 1019.16 1019.00 1018.88 1018.96 1018.88 1018.88 1018.84 1018.92 1018.92 1018.92 1019.00 1018.84 1018.72 1018.68 1018.72 1018.72 1018.92 1019.20 1019.56 1020.12 1019.68 1019.80 1019.80 1020.04 1020.28 1020.28 1019.92 1019.60 1019.24 1019.04
1017.68 1017.88 1017.96 1017.88 1017.92 1018.08 1018.40 1018.56 1018.68 1018.68 1018.68 1018.64 1018.60 1018.64 1018.88 1019.12 1019.36 1019.36 1019.44 1019.64 1019.80 1019.64 1019.40 1019.44 1019.52 1019.52 1019.52 1019.52 1019.44 1019.32 1019.24 1019.20 1019.12 1019.08 1019.08 1018.88 1018.88 1019.08 1019.12 1019.04 1018.96 1019.00 1019.08 1019.00 1018.92 1018.88 1018.88 1018.96 1019.04 1019.32 1019.68 1019.44 1020.00 1020.04 1019.68 1019.68 1019.96 1020.28 1020.52 1020.48 1019.76 1019.56 1019.48
1017.96 1018.08 1018.20 1018.20 1018.20 1018.12 1018.32 1018.76 1018.80 1018.80 1018.84 1018.76 1018.72 1018.80 1018.92 1019.20 1019.52 1019.64 1019.68 1019.84 1019.76 1019.48 1019.36 1019.36 1019.48 1019.60 1019.68 1019.68 1019.64 1019.56 1019.40 1019.24 1019.16 1019.16 1019.08 1019.04 1019.04 1019.20 1019.36 1019.28 1019.24 1019.24 1019.12 1019.04 1018.96 1018.96 1019.04 1019.08 1019.24 1019.48 1019.68 1019.96 1020.16 1020.04 1019.96 1020.00 1019.96 1020.16 1020.52 1020.32 1019.92 1019.88 1019.92
1017.72 1017.84 1017.92 1017.88 1017.88 1017.96 1018.16 1018.68 1018.84 1019.00 1019.00 1018.96 1019.04 1019.12 1019.24 1019.40 1019.72 1019.80 1019.88 1019.92 1019.56 1019.40 1019.36 1019.36 1019.40 1019.52 1019.72 1019.80 1019.80 1019.72 1019.56 1019.40 1019.24 1019.16 1019.16 1019.20 1019.24 1019.32 1019.44 1019.48 1019.44 1019.40 1019.40 1019.24 1019.16 1019.16 1019.20 1019.28 1019.32 1019.56 1019.80 1020.04 1020.20 1020.16 1020.08 1020.08 1020.24 1020.32 1020.16 1020.00 1019.96 1020.04 1020.08
1017.64 1017.76 1017.72 1017.80 1017.96 1017.96 1018.32 1018.72 1019.00 1019.16 1019.28 1019.28 1019.28 1019.28 1019.36 1019.44 1019.68 1019.84 1019.92 1019.72 1019.44 1019.56 1019.56 1019.52 1019.52 1019.56 1019.68 1019.76 1019.76 1019.76 1019.68 1019.52 1019.44 1019.40 1019.32 1019.28 1019.24 1019.36 1019.52 1019.52 1019.52 1019.64 1019.64 1019.52 1019.60 1019.60 1019.64 1019.56 1019.48 1019.60 1019.72 1019.92 1020.24 1020.44 1020.44 1020.36 1020.40 1020.40 1020.20 1019.92 1019.88 1020.04 1020.20
1017.16 1017.32 1017.56 1017.68 1017.92 1018.08 1018.32 1018.60 1018.92 1019.24 1019.52 1019.52 1019.36 1019.36 1019.40 1019.48 1019.56 1019.88 1019.80 1019.48 1019.44 1019.44 1019.44 1019.52 1019.64 1019.72 1019.80 1019.76 1019.76 1019.72 1019.64 1019.68 1019.60 1019.52 1019.40 1019.40 1019.48 1019.52 1019.56 1019.64 1019.68 1019.80 1019.92 1019.92 1019.96 1019.96 1019.96 1020.00 1019.92 1019.96 1020.00 1020.04 1020.24 1020.44 1020.60 1020.64 1020.68 1020.80 1020.60 1020.24 1020.08 1020.12 1020.16
1017.32 1017.48 1017.76 1018.00 1017.92 1017.92 1018.32 1018.68 1019.08 1019.40 1019.56 1019.72 1019.52 1019.48 1019.52 1019.56 1019.56 1019.60 1019.56 1019.60 1019.52 1019.52 1019.52 1019.64 1019.68 1019.80 1019.76 1019.80 1019.72 1019.56 1019.48 1019.52 1019.60 1019.60 1019.56 1019.60 1019.60 1019.56 1019.52 1019.48 1019.72 1019.88 1020.08 1020.20 1020.28 1020.32 1020.32 1020.48 1020.60 1020.64 1020.60 1020.56 1020.72 1020.92 1021.04 1021.20 1021.40 1021.20 1020.92 1020.72 1020.48 1020.44 1020.40
1017.48 1017.68 1017.72 1017.72 1017.84 1018.00 1018.32 1018.64 1019.04 1019.32 1019.52 1019.72 1019.68 1019.60 1019.64 1019.60 1019.64 1019.56 1019.60 1019.60 1019.56 1019.60 1019.64 1019.76 1019.84 1019.88 1019.84 1019.76 1019.68 1019.64 1019.56 1019.60 1019.52 1019.68 1019.96 1020.08 1020.08 1020.12 1020.12 1020.08 1020.16 1020.40 1020.64 1020.64 1020.60 1020.64 1020.68 1020.76 1021.04 1021.16 1021.16 1021.16 1021.12 1021.16 1021.16 1021.16 1021.08 1021.12 1021.12 1021.08 1020.88 1020.84 1020.72
1017.60 1017.68 1017.80 1018.04 1018.12 1018.12 1018.52 1018.80 1019.12 1019.32 1019.52 1019.68 1019.56 1019.60 1019.64 1019.64 1019.60 1019.56 1019.56 1019.60 1019.56 1019.56 1019.72 1019.76 1019.68 1019.72 1019.84 1019.84 1019.84 1019.80 1019.64 1019.88 1020.00 1020.12 1020.36 1020.56 1020.60 1020.80 1020.88 1020.72 1020.56 1020.72 1020.92 1021.04 1020.88 1020.64 1020.60 1020.68 1021.00 1021.12 1021.16 1021.20 1021.20 1021.08 1021.08 1021.08 1021.12 1021.28 1021.36 1021.20 1021.16 1020.96 1020.80
1017.76 1017.84 1018.00 1018.04 1018.12 1018.32 1018.60 1018.80 1019.08 1019.36 1019.56 1019.64 1019.56 1019.60 1019.68 1019.68 1019.60 1019.48 1019.48 1019.52 1019.56 1019.60 1019.76 1019.80 1019.84 1019.96 1020.00 1020.04 1020.08 1020.12 1020.12 1020.16 1020.16 1020.16 1020.24 1020.52 1020.72 1020.84 1021.08 1021.36 1021.20 1020.96 1020.92 1021.20 1021.24 1021.08 1020.84 1020.64 1020.80 1021.00 1021.08 1021.16 1021.24 1021.08 1020.84 1020.88 1021.16 1021.36 1021.40 1021.28 1021.00 1020.96 1021.16
1018.00 1018.08 1018.16 1018.16 1018.44 1018.60 1018.84 1019.00 1019.12 1019.36 1019.60 1019.64 1019.60 1019.68 1019.72 1019.72 1019.60 1019.52 1019.48 1019.48 1019.52 1019.60 1019.76 1019.84 1019.92 1020.04 1020.12 1020.08 1020.20 1020.20 1020.24 1020.28 1020.32 1020.32 1020.28 1020.28 1020.40 1020.64 1020.80 1021.12 1021.40 1021.60 1021.48 1021.40 1021.48 1021.48 1021.44 1021.32 1021.16 1020.96 1020.84 1020.72 1020.96 1021.28 1021.08 1020.96 1021.04 1021.04 1020.96 1020.92 1020.92 1021.08 1021.36
1017.84 1017.92 1018.04 1018.16 1018.44 1018.68 1018.92 1019.16 1019.32 1019.48 1019.64 1019.60 1019.64 1019.72 1019.72 1019.76 1019.64 1019.60 1019.56 1019.52 1019.56 1019.60 1019.72 1019.84 1019.96 1020.12 1020.24 1020.20 1020.24 1020.12 1020.16 1020.24 1020.28 1020.36 1020.40 1020.36 1020.32 1020.36 1020.56 1020.76 1021.20 1021.52 1021.96 1022.00 1021.76 1021.76 1021.68 1021.52 1021.44 1021.36 1021.16 1020.96 1020.88 1020.88 1021.08 1021.36 1021.36 1021.28 1021.20 1021.16 1021.24 1021.36 1021.52
Wind_Speed
9 8 5 10 10 9 10 11 11 12 12 8 10 13 13 13 12 11 11 11 11 9 10 10 9 8 6 7 7 7 7 5 4 5 4 4 4 4 5 5 4 5 5 5 4 5 4 3 4 4 4 4 3 3 2 1 1 2 2 3 2 1 1
10 9 9 9 9 9 10 11 9 10 11 8 9 12 10 13 13 12 11 11 11 9 11 10 9 8 7 7 7 7 7 7 6 5 4 4 3 3 5 5 5 4 5 5 4 4 4 4 3 3 4 4 4 3 3 2 3 2 2 2 2 1 0
11 10 9 10 9 9 10 9 9 9 11 9 9 10 9 12 13 13 12 12 12 8 9 10 8 10 6 7 7 7 7 7 6 6 6 6 5 5 6 6 5 5 4 4 4 4 3 3 3 4 4 3 4 3 3 3 3 2 2 3 2 3 2
12 11 8 11 11 9 11 9 10 9 10 10 9 10 10 12 12 12 12 13 13 9 11 9 9 9 7 7 7 7 7 6 7 6 6 5 6 5 5 5 5 5 4 4 5 4 3 4 5 4 4 3 4 4 4 3 4 3 3 3 3 3 3
12 10 7 6 8 9 10 9 9 10 10 11 8 9 11 12 12 10 11 11 12 11 11 10 9 8 7 7 6 7 8 7 7 6 6 5 5 5 5 6 6 6 6 5 4 4 3 5 5 5 4 4 4 4 4 4 4 4 3 4 4 2 2
13 10 6 7 4 6 1 4 7 12 11 11 9 10 12 13 11 13 12 11 10 9 8 9 8 8 8 8 7 8 7 7 6 6 6 6 6 5 5 4 6 5 7 7 6 5 5 5 4 4 5 5 5 5 4 3 4 4 3 3 4 3 4
11 5 4 4 4 6 6 10 11 9 6 2 5 6 12 11 12 13 11 11 12 10 10 12 10 9 7 8 6 7 9 9 8 8 7 7 6 6 5 4 3 5 6 6 6 6 6 5 5 5 4 5 5 6 5 5 4 4 4 4 3 3 3
6 11 10 6 7 7 4 7 7 8 8 7 9 10 9 1 11 11 11 11 11 11 9 10 8 10 8 7 6 7 9 7 7 8 6 8 7 6 6 5 4 4 3 6 6 7 6 6 6 5 6 5 4 5 6 5 4 4 4 4 4 3 4
15 14 13 10 10 10 7 9 9 5 7 3 8 8 7 3 6 4 9 11 9 10 10 8 8 10 9 8 8 6 9 7 6 6 6 5 7 8 7 7 6 6 5 8 7 6 7 7 7 6 7 6 5 6 5 4 4 4 4 5 4 4 4
10 9 7 9 10 10 9 10 11 8 8 6 5 8 5 2 3 5 6 10 8 10 11 9 8 10 10 8 9 7 7 7 6 8 6 6 4 6 6 6 7 7 6 6 6 8 7 8 7 4 6 6 5 5 5 5 5 5 5 5 5 5 5
7 8 9 10 11 12 11 11 11 9 9 8 9 8 6 4 5 5 4 5 7 6 6 5 7 11 9 9 10 8 8 7 6 7 6 6 6 7 7 6 6 6 6 5 4 4 6 6 6 5 5 6 5 6 5 5 5 4 4 4 5 5 5
1 7 9 9 9 11 12 10 9 8 8 8 7 8 8 5 5 4 3 3 4 6 5 4 4 7 9 9 10 8 9 8 7 6 6 5 4 4 5 6 7 6 7 6 6 5 6 8 7 6 5 5 5 4 5 5 5 5 5 5 5 5 4
5 1 8 11 10 9 10 10 10 9 8 7 6 4 2 4 6 4 4 3 3 4 5 4 3 3 7 7 9 8 8 7 6 6 6 6 5 5 4 1 1 2 1 2 7 7 4 8 7 5 6 7 6 5 4 6 5 4 4 4 4 5 5
4 2 5 5 7 9 12 12 11 10 10 9 8 9 8 2 4 3 5 4 3 4 4 3 3 2 2 5 6 6 7 6 5 6 6 5 5 5 4 0 1 2 1 4 3 3 4 5 8 7 6 6 7 7 5 5 4 2 2 3 4 3 5
7 6 8 5 6 6 5 7 10 11 11 10 8 7 7 8 6 3 3 3 3 3 2 2 3 1 1 0 2 3 3 2 2 2 4 4 4 4 4 2 0 0 3 3 3 5 6 6 2 4 6 7 8 7 7 4 6 4 2 6 5 4 4
10 8 6 6 6 7 7 9 8 8 4 5 5 6 7 7 5 5 5 8 9 8 7 2 1 3 4 9 13 15 14 14 13 14 10 5 1 1 2 3 2 3 4 2 3 3 3 3 3 4 5 4 2 2 5 4 3 4 3 3 4 5 5
9 10 9 11 10 8 6 9 7 7 8 8 8 9 8 7 7 4 5 7 8 2 4 5 6 7 8 7 4 3 2 3 3 2 1 3 7 8 7 4 3 3 2 2 2 3 3 3 4 5 5 5 6 8 5 3 2 6 6 5 5 2 4
7 9 10 9 8 7 7 8 8 8 7 7 8 8 7 6 5 7 7 6 6 4 3 4 6 8 7 2 2 2 6 3 2 1 3 1 3 1 1 2 2 2 2 2 3 2 3 4 4 5 4 5 6 6 5 4 3 5 7 6 5 3 0
6 6 6 8 9 9 9 9 8 9 9 9 8 7 6 6 7 5 4 6 5 6 8 8 7 7 6 4 1 2 4 7 6 3 2 4 3 5 4 2 1 1 0 0 0 1 1 2 3 4 4 5 6 6 5 4 2 5 6 5 7 6 3
7 7 9 10 11 12 11 9 7 8 10 10 8 8 7 8 8 7 6 6 7 8 7 8 7 8 5 3 0 2 1 3 5 5 3 1 0 0 1 2 1 0 1 1 1 2 3 2 2 3 4 5 7 7 5 3 2 2 6 5 5 7 3
6 6 7 10 10 10 11 12 11 9 8 8 8 7 8 8 7 7 8 7 8 7 7 7 7 6 5 5 3 3 3 3 3 2 1 0 0 1 1 1 0 1 1 1 0 1 2 2 4 4 5 5 5 5 4 3 2 2 3 6 4 5 5
9 10 8 7 8 7 8 10 10 10 9 6 7 7 7 7 7 7 7 6 7 6 6 7 7 7 6 6 4 3 2 3 4 4 3 3 3 3 3 3 2 1 1 0 0 1 2 3 2 4 6 7 6 5 4 2 5 3 3 4 5 4 2
7 8 11 11 9 8 6 7 8 8 7 7 7 7 7 7 8 8 7 6 5 6 6 7 7 6 6 6 5 4 3 3 4 4 4 4 4 4 3 2 1 1 1 1 1 1 2 3 1 0 2 4 4 7 5 3 6 7 6 4 4 3 1
8 8 8 8 10 9 9 9 8 8 7 6 7 6 5 5 6 7 7 7 6 7 6 7 7 5 5 6 6 6 5 4 4 5 4 4 3 2 1 0 0 0 0 1 0 1 2 2 2 1 4 4 5 5 6 3 4 7 8 7 5 1 0
10 8 7 7 9 10 9 8 7 8 7 7 8 7 6 6 6 7 7 6 5 6 7 6 6 6 6 6 6 6 6 6 6 5 4 3 2 1 0 0 0 1 1 2 2 2 2 1 2 2 4 6 7 9 7 5 4 8 8 8 6 3 2
11 9 5 8 9 8 7 6 7 7 7 7 6 5 3 4 5 7 7 6 5 6 6 5 4 4 5 5 6 6 7 6 6 6 5 4 3 3 3 2 1 2 3 3 2 2 3 5 6 4 3 6 8 7 6 6 5 7 10 9 10 8 7
9 9 8 8 7 6 6 7 6 5 5 5 5 6 4 3 5 7 6 6 5 5 4 3 3 3 3 4 5 6 6 5 5 5 5 5 3 2 2 2 2 3 3 2 2 4 6 7 7 9 9 7 4 6 7 6 6 5 7 9 11 12 9
10 9 7 6 8 7 6 5 5 6 8 7 8 8 7 5 4 5 5 5 4 3 3 4 3 2 3 4 3 3 3 3 3 3 4 4 5 5 4 4 3 2 2 1 2 5 7 6 8 8 6 7 5 3 6 7 10 5 6 7 12 13 12
9 8 7 6 7 7 8 6 5 5 6 5 5 4 5 5 4 4 4 5 4 3 3 3 4 4 3 2 2 1 2 2 3 3 3 4 5 6 6 5 5 5 3 2 3 5 5 7 7 7 7 6 4 4 5 4 5 6 5 8 13 12 12
8 7 8 8 7 6 5 7 8 8 6 5 5 5 5 7 6 5 5 4 3 3 3 4 4 3 3 2 1 0 1 1 1 3 4 4 4 4 5 5 4 5 5 5 5 5 4 4 5 6 6 6 5 5 4 4 3 4 6 7 13 14 14
10 9 7 8 8 7 7 8 7 6 5 5 6 5 5 4 6 5 4 3 4 3 3 2 2 3 3 3 3 2 2 1 1 3 4 4 3 4 4 5 5 6 6 6 6 6 6 6 4 3 5 6 6 4 3 3 3 5 9 14 13 13 13
6 7 9 9 7 7 7 7 7 7 6 5 4 4 4 4 4 5 4 3 3 3 3 4 4 3 2 2 1 1 2 2 2 1 2 1 1 2 3 3 3 4 6 6 6 6 6 5 5 6 5 4 5 4 5 6 6 5 6 7 9 9 12
5 8 9 8 7 6 7 7 7 6 6 5 4 4 4 4 3 3 4 4 3 2 3 2 2 2 1 1 0 0 2 2 1 3 2 1 2 3 4 4 5 5 6 5 6 7 6 6 6 6 6 6 7 5 5 5 4 5 6 6 6 6 6
7 8 8 7 5 7 8 7 6 5 5 5 4 4 4 3 2 2 3 3 3 3 2 3 2 2 2 2 1 1 1 1 8 8 5 5 5 5 6 6 5 6 5 5 5 5 5 5 5 5 4 4 4 4 4 5 4 4 4 4 4 4 5
6 6 5 7 6 7 7 6 6 6 6 5 4 4 3 2 2 4 4 3 3 3 2 1 1 0 1 1 0 2 2 6 4 5 5 4 5 5 5 4 4 6 4 4 3 2 4 5 4 3 3 4 1 2 3 1 3 1 1 1 1 4 5
5 5 6 6 6 7 7 6 6 5 5 4 4 4 3 2 2 3 4 3 2 2 1 1 2 3 5 4 4 4 4 4 4 4 4 5 4 5 5 7 8 5 3 2 5 8 6 3 3 2 3 5 3 1 1 3 3 5 3 2 3 4 3
5 4 5 6 7 6 7 6 6 6 5 4 4 4 3 2 2 1 3 4 3 1 2 3 2 2 5 4 3 3 3 3 3 2 3 3 4 4 5 4 7 12 11 7 5 5 6 8 6 5 3 4 4 4 8 8 6 3 0 2 4 4 6
4 3 4 4 6 6 6 6 6 6 5 4 4 4 4 3 2 3 3 3 3 3 1 2 3 1 4 4 2 1 2 3 2 1 2 1 1 2 5 4 5 4 5 6 5 5 6 6 7 7 7 7 6 4 2 3 2 3 3 5 5 6 6
Wind_Direction
205 208 201 177 178 182 170 170 163 164 170 170 166 161 150 155 151 154 158 160 165 161 166 163 166 167 166 153 155 151 151 150 146 151 158 162 179 160 151 169 172 169 159 171 189 175 199 236 150 163 159 164 166 171 161 182 147 179 169 172 151 196 215
203 205 204 184 181 178 171 168 160 162 167 164 163 157 152 154 154 154 158 162 167 166 166 164 167 171 170 157 154 153 156 159 164 161 167 177 178 180 170 173 173 179 162 159 165 179 167 202 164 164 165 157 174 178 177 186 191 205 204 183 188 181 155
196 200 200 188 185 176 170 167 164 162 167 162 162 157 149 154 156 154 157 161 167 166 165 165 167 175 167 163 153 165 167 160 167 169 172 186 195 192 175 172 178 170 180 151 155 177 163 167 189 169 177 174 176 183 182 187 200 203 167 192 177 200 204
193 198 196 188 182 172 169 164 167 161 163 162 161 160 145 154 157 155 158 161 164 166 167 165 169 170 174 168 161 167 174 172 174 179 184 186 192 194 175 170 172 161 162 184 174 182 183 166 181 180 185 174 171 189 185 196 193 185 182 186 219 217 215
193 197 187 178 169 168 168 162 165 160 161 163 151 160 148 154 153 150 158 159 163 167 168 168 170 168 172 175 174 173 175 180 179 184 186 192 185 180 183 175 179 166 176 182 182 181 162 158 165 177 181 178 168 181 196 198 186 188 179 189 203 201 216
191 194 185 173 97 41 34 153 159 161 161 161 152 150 151 154 153 157 158 159 162 162 163 168 178 169 171 179 183 178 175 183 182 186 191 182 180 180 181 172 177 173 162 180 186 174 176 172 179 174 180 190 180 188 193 187 183 183 189 188 189 196 209
186 164 70 78 132 103 67 69 28 18 10 138 116 132 150 151 157 157 157 159 163 168 172 172 181 170 173 177 191 171 180 179 182 191 193 187 173 177 177 193 193 184 178 168 178 179 175 184 187 186 199 193 186 186 189 189 188 188 189 200 198 201 207
111 66 85 107 127 133 87 64 80 97 81 42 70 57 22 116 148 154 156 160 166 172 182 176 180 165 173 176 191 176 179 180 179 188 183 181 183 175 178 186 198 213 188 182 178 176 180 188 194 194 195 203 189 179 183 182 187 191 184 193 191 215 206
126 153 162 148 133 134 105 90 84 68 99 103 104 101 107 56 88 117 157 160 169 171 182 185 176 168 172 172 185 171 178 174 178 184 195 185 174 190 181 186 198 210 196 181 188 188 184 190 199 195 189 189 185 173 181 182 189 191 186 191 195 207 224
142 148 131 101 107 115 120 123 127 135 123 103 96 121 128 125 114 104 132 160 157 170 182 186 170 172 172 169 181 176 170 178 178 188 191 199 196 186 187 190 196 195 194 178 177 190 189 187 199 186 182 188 180 179 182 190 189 186 187 199 198 203 209
150 121 119 124 135 137 135 134 135 142 147 151 139 143 158 166 144 120 141 145 150 152 147 131 166 171 170 169 178 178 174 177 181 186 194 194 196 197 197 205 186 174 181 184 201 189 171 184 182 187 180 195 168 176 189 185 191 189 200 199 194 200 210
84 126 125 131 132 139 137 137 135 137 145 151 148 156 165 170 161 137 139 180 170 152 147 145 127 163 166 162 166 173 170 175 177 188 194 207 210 216 206 196 192 181 187 188 197 207 182 182 185 180 173 181 185 177 187 175 177 194 203 208 199 194 200
355 29 131 141 144 143 132 133 146 149 137 125 122 114 120 161 164 156 156 185 180 160 151 138 121 132 169 163 161 167 174 173 181 181 184 196 214 218 213 204 62 53 46 226 199 195 197 181 187 190 178 186 178 177 180 194 199 197 204 212 196 195 205
78 44 79 88 120 147 144 136 134 133 126 123 130 131 129 137 253 170 162 176 170 155 145 136 127 91 154 169 162 162 172 179 178 185 188 192 196 193 188 164 77 78 67 58 353 253 196 180 183 191 181 179 180 191 185 189 196 206 225 205 215 193 189
89 38 29 38 36 22 61 101 123 135 138 141 143 144 143 146 152 131 136 140 118 92 85 114 114 115 83 43 161 163 143 127 131 151 176 172 178 165 161 170 144 109 79 56 62 50 34 7 43 167 194 185 180 183 192 133 90 86 355 302 262 199 188
116 94 83 74 45 53 52 34 26 48 77 107 113 110 102 107 93 60 52 53 26 27 345 340 78 62 38 30 19 10 16 17 16 10 359 7 55 133 144 140 116 74 80 93 95 88 51 62 41 68 68 62 59 73 57 55 64 40 25 339 274 228 210
130 138 139 132 136 123 109 93 73 54 40 32 25 16 24 32 33 35 47 83 109 113 350 17 39 47 52 67 82 121 110 129 156 157 226 326 339 357 5 40 54 74 76 70 83 103 97 78 67 70 93 96 99 104 94 79 50 10 43 22 350 283 193
117 125 125 114 95 87 85 85 86 81 65 53 54 48 57 47 15 11 12 44 75 102 103 44 50 52 48 86 213 129 91 350 319 244 275 160 180 175 280 334 31 42 43 38 30 52 78 84 88 96 101 109 113 112 115 111 63 50 29 12 2 15 340
49 65 86 116 117 116 113 104 99 98 95 75 71 82 81 99 87 51 28 44 43 79 82 77 66 73 62 14 340 97 162 185 182 169 206 252 204 186 192 170 142 158 129 348 346 58 78 121 113 110 118 119 118 114 100 93 51 89 65 26 346 2 58
56 75 88 94 104 104 107 109 104 98 96 95 88 82 79 69 73 62 47 47 47 52 54 72 86 103 115 128 22 65 144 160 171 177 185 173 343 251 203 196 209 192 39 23 349 257 214 169 148 134 130 130 124 119 115 106 7 64 91 61 6 335 328
108 68 74 92 91 95 100 100 95 88 84 89 95 88 74 61 56 58 50 46 55 50 59 54 64 70 83 86 71 54 37 37 57 68 64 78 190 34 64 83 85 100 122 118 69 4 324 235 171 143 115 99 117 117 101 78 23 40 73 82 44 330 288
121 124 111 90 81 76 98 101 103 105 104 99 92 92 91 94 84 74 63 51 59 60 58 64 59 53 54 59 55 55 56 75 69 64 57 52 60 70 54 48 32 65 33 88 23 319 297 286 236 172 156 150 141 113 86 37 3 29 36 49 62 8 330
89 101 115 118 117 113 97 98 97 99 105 104 105 108 112 115 111 108 104 88 74 65 65 68 65 56 52 47 31 27 36 68 87 81 74 68 72 63 58 53 33 51 46 61 23 340 279 266 294 24 150 126 102 105 91 45 1 357 13 31 30 72 66
42 33 49 84 100 95 83 78 77 71 71 76 74 63 70 81 92 98 92 87 80 81 75 73 66 55 52 44 32 26 26 40 66 69 60 65 69 74 81 204 262 56 100 103 352 303 310 308 269 156 62 76 84 102 103 74 7 11 7 14 19 69 101
72 52 37 49 66 73 73 70 74 80 73 70 67 59 66 72 71 73 80 76 74 75 76 68 62 57 57 50 46 43 35 36 44 49 59 55 44 32 13 278 3 59 76 49 66 23 329 317 209 118 131 135 121 122 111 98 49 24 15 14 18 59 82
93 88 79 75 77 87 95 100 99 95 94 96 102 110 99 101 107 105 100 93 84 73 67 64 70 79 76 72 61 57 51 46 47 41 31 29 22 356 337 329 347 74 70 44 19 25 43 65 60 71 89 94 110 92 85 80 50 24 20 22 31 60 79
111 119 120 111 105 99 79 75 75 87 106 125 132 130 131 97 83 83 84 88 85 82 79 80 78 72 73 76 74 66 62 49 43 43 47 37 12 335 355 331 57 75 72 62 27 67 77 80 83 82 82 73 27 102 94 83 72 41 9 47 49 47 62
106 108 118 129 125 110 107 103 103 97 87 88 91 92 91 86 82 91 102 108 110 118 126 117 112 95 75 78 84 83 67 48 33 34 26 32 44 36 39 30 32 59 80 105 96 90 94 90 90 92 80 84 101 77 93 93 89 76 14 28 57 55 51
132 135 138 131 119 130 138 145 144 122 108 102 95 91 103 118 116 105 97 90 88 91 104 118 121 115 96 80 73 80 84 50 25 17 3 16 34 51 51 36 36 22 15 31 55 62 81 101 102 95 95 101 103 85 86 83 90 94 85 46 52 50 52
132 136 142 140 143 137 113 88 80 78 77 81 86 86 81 83 84 84 88 101 125 112 97 89 110 129 144 146 146 35 72 81 35 12 10 23 27 35 45 31 36 40 30 25 28 33 56 77 116 122 122 110 90 79 64 57 55 54 46 52 49 45 42
151 161 152 130 121 113 107 111 114 107 98 88 87 92 96 96 102 99 86 65 69 64 73 99 105 85 83 105 134 154 206 218 72 54 47 17 34 56 35 32 26 38 20 33 37 41 42 40 50 91 120 116 110 111 133 124 73 43 30 35 38 36 34
136 114 113 116 112 112 119 113 109 107 106 102 106 107 106 102 105 111 127 111 91 82 79 73 74 74 65 77 94 180 201 198 229 179 137 109 27 61 65 61 47 52 41 37 37 30 36 49 54 56 53 73 106 102 77 50 46 30 24 29 30 27 21
109 125 127 119 130 132 115 110 113 123 131 128 119 106 99 109 117 125 117 104 108 95 84 91 95 97 61 11 327 3 57 97 184 172 126 83 26 21 45 35 40 50 51 46 41 33 35 47 48 41 46 76 93 87 74 55 32 22 19 18 20 22 15
103 100 118 134 136 112 109 115 115 100 94 97 99 101 111 117 139 138 125 130 128 148 169 162 175 171 193 207 238 261 231 61 50 59 69 42 48 50 45 44 52 53 52 41 38 55 44 47 53 50 52 47 75 109 106 102 74 46 25 12 19 12 16
96 105 99 94 104 111 115 112 106 105 105 110 117 117 112 116 93 99 101 86 63 51 65 43 340 144 175 181 94 345 70 74 67 73 89 76 62 58 42 15 49 94 74 23 355 42 104 95 75 75 79 97 80 98 93 73 78 68 20 11 355 26 10
106 100 98 109 106 109 110 113 119 118 118 124 122 121 121 120 154 155 129 120 85 70 51 353 352 68 74 63 53 49 54 58 62 62 88 118 122 101 79 58 47 34 102 82 30 33 34 81 130 151 131 97 46 337 169 135 134 147 165 232 354 341 339
121 113 114 112 114 116 124 129 123 123 126 131 137 129 139 159 231 161 103 106 127 102 37 348 349 43 88 77 69 74 93 89 70 69 74 78 111 128 120 105 45 33 47 78 73 66 51 41 39 58 105 119 110 61 67 104 123 138 359 341 305 306 329
107 131 125 121 130 131 127 132 136 139 152 157 152 153 164 191 216 131 121 114 100 95 97 324 349 333 118 107 84 51 103 99 65 53 111 85 58 122 141 124 102 86 30 44 83 68 44 35 35 42 69 93 98 99 21 9 318 233 252 272 303 314 333